Regional Weather Roundup
Issued by NWS Grand Forks, ND

Home | Current Version | Previous Version | Text Only | Print | Product List | Glossary On
Versions: 1 2 3 4 5 6 7 8 9 10 11 12 13 14 15 16 17 18 19 20 21 22 23 24 25 26 27 28 29 30 31 32 33 34 35 36 37 38 39 40 41 42 43 44 45 46 47 48 49 50
000
ASUS43 KFGF 312131
RWRFGF
PRAIRIE TO PINES  WEATHER ROUNDUP
NATIONAL WEATHER SERVICE EASTERN NORTH DAKOTA/GRAND FORKS ND
400 PM CDT TUE MAY 31 2016

 **SATELLITE DATA USED TO AUGMENT SKY COVER AT AUTOMATED STATIONS**
 *****  WEATHER ACROSS EASTERN NORTH DAKOTA  *****

CITY           SKY/WX    TMP DP  RH WIND       PRES   REMARKS
GRAND FORKS    PTSUNNY   65  47  52 S16       29.68S
GRAND FRKS AFB PTSUNNY   65  48  52 SW14      29.68F
GRAND FRKS NWS   N/A     64 N/A N/A SW10        N/A
DEVILS LAKE    CLOUDY    61  48  62 S13       29.65F
FARGO          CLOUDY    68  45  43 SW20      29.72F
WAHPETON ARPT  PTCLDY    68  41  37 SW20      29.76F
$$

 ***** WEATHER ACROSS CENTRAL AND WESTERN NORTH DAKOTA  *****

CITY           SKY/WX    TMP DP  RH WIND       PRES   REMARKS
BISMARCK       LGT RAIN  53  50  89 W5        29.64F
MINOT          CLOUDY    67  47  48 VRB5      29.63R
JAMESTOWN      PTSUNNY   63  47  55 SW20G29   29.66F
MINOT AFB      CLOUDY    59  54  82 N21G28    29.63R
GARRISON         N/A     62  50  64 W5        29.64R
WILLISTON      LGT RAIN  54  50  86 N20G31    29.86R
DICKINSON      LGT RAIN  50  46  86 NW25G38   29.79R
HETTINGER      LGT RAIN  52  47  83 NW33G41   29.84R
$$

 *****  OTHER AIRPORT OBSERVATIONS IN OUR AREA  *****

CITY           SKY/WX    TMP DP  RH WIND       PRES   REMARKS
WALHALLA       FAIR      66  63  88 S9G18     29.64F
GRAFTON AIRPOR MOCLDY    68  52  56 S16G23    29.67F
VALLEY CITY AR CLOUDY    63  48  59 SW24      29.70F
CANDO          FAIR      64  50  59 S9        29.65F
CAVALIER APRT  FAIR      66  54  63 S12       29.64F
GWINNER        FAIR      66  48  52 SW21G32   29.73F
SHEYENNE NWR     N/A     67  47  49 SW15      29.95S
ROLLA          TSTM      59  54  82 S10       29.64S
 ***** THE ABOVE OBSERVATIONS ARE NON NWS ARE NOT QUALITY
       CONTROLLED AND MAY MIS-REPORT RAIN FOR SNOW...
$$

  *****  WEATHER ACROSS NORTHERN MINNESOTA  *****

CITY           SKY/WX    TMP DP  RH WIND       PRES   REMARKS
FLAG ISLAND    CLOUDY    52  50  93 SE12G18   29.78F
WARROAD        CLOUDY    57  54  88 E15       29.76S
ROSEAU         PTSUNNY   59  54  82 SE16      29.72F
HALLOCK        MOSUNNY   68  54  60 S17       29.66F
THF RVR FALLS  CLOUDY    64  48  55 SW17G23   29.73S
BAUDETTE       CLOUDY    53  51  93 SE12      29.79S
WASKISH        CLOUDY    59  55  88 E10       29.78S
CROOKSTON      CLOUDY    64  48  55 SW16      29.72R
STEPHEN NDAWN    N/A     66  55  68 S12         N/A
GREENBUSH NDAW   N/A     66  57  72 S15         N/A
$$
  *****  WEATHER ACROSS CENTRAL AND WEST MINNESOTA  *****

CITY           SKY/WX    TMP DP  RH WIND       PRES   REMARKS
FOSSTON        PTSUNNY   64  50  59 S20       29.75S
BEMIDJI        PTSUNNY   65  58  79 SE8       29.75S
PARK RAPIDS    MOSUNNY   71  50  47 SW16G23   29.78R
ELBOW LAKE     MOCLDY    69  47  45 W17G28    29.81S
WADENA         PTSUNNY   66  50  55 SW10      29.79S
DETROIT LAKES  MOSUNNY   68  45  42 SW16G25   29.78S
MOORHEAD       PTSUNNY   66  46  48 SW15      29.74F
FERGUS FALLS   PTSUNNY   68  46  45 SW18G26   29.75F
MORRIS MN      MOSUNNY   72  48  43 W20G25    29.80F
STAPLES        MOSUNNY   70  48  46 SW12      29.80S
$$
  *****  WEATHER ELSEWHERE ACROSS MINNESOTA  *****

CITY           SKY/WX    TMP DP  RH WIND       PRES   REMARKS
DULUTH         CLOUDY    47  45  93 E15       29.88F
INTRNTL FALLS  CLOUDY    52  50  93 SE13      29.84S FOG
ELY            CLOUDY    50  46  87 SE10      29.89S
CLOQUET        CLOUDY    46  45  93 E8        29.88S
WHEATON        MOSUNNY   70  48  46 SW16      29.80F
BRAINERD       MOSUNNY   72  54  53 S13G22    29.80F
HIBBING        CLOUDY    51  50  96 SE7       29.86F
ALEXANDRIA     MOSUNNY   70  50  49 SW16      29.83S
SAINT CLOUD    CLOUDY    73  54  51 SW14G22   29.82F
MINNEAPOLIS    CLOUDY    69  60  73 W6        29.86R
$$

  *****  WEATHER ACROSS SOUTH DAKOTA  *****

CITY           SKY/WX    TMP DP  RH WIND       PRES   REMARKS
SIOUX FALLS    MOSUNNY   71  47  42 W15G21    29.89F
BROOKINGS      MOSUNNY   69  46  43 W17G24    29.85F
WATERTOWN      PTSUNNY   69  45  41 W18G25    29.82F
HURON          MOSUNNY   73  44  35 W21G29    29.83F
SISSETON         N/A     68  44  42 W22G31    29.77F
ABERDEEN       MOSUNNY   69  46  43 W29G36    29.76F
MITCHELL       MOSUNNY   76  45  33 W18       29.85F
PIERRE         MOSUNNY   69  44  40 W35G45    29.86S
MOBRIDGE       CLOUDY    61  50  67 W20G37    29.71F
RAPID CITY     PTSUNNY   61  39  44 NW25G33   29.99R
$$

  *****  SOME WEATHER IN NEARBY STATES *****

CITY           SKY/WX    TMP DP  RH WIND       PRES   REMARKS
GLASGOW MT     CLOUDY    62  43  49 NW23G33   29.99F
GREAT FALLS MT MOSUNNY   60  35  39 W8        30.19F
CHEYENNE WY    LGT RAIN  57  39  51 N6        30.12R
SCOTTSBLUFF NE MOSUNNY   71  38  29 W15G24    30.04F
OMAHA NE       PTSUNNY   76  59  55 NW12      29.91F
DES MOINES IA  LGT RAIN  68  65  90 N7        29.89R FOG
DAVENPORT IA   CLOUDY    78  63  59 E13       29.92F
CHICAGO IL     RAIN      66  63  90 N14       30.00F FOG
EAU CLAIRE WI  CLOUDY    63  58  83 N7        29.84R
LA CROSSE WI   HVY RAIN  72  63  73 SE20G32   29.85R
$$

  *****  SOME NATIONAL WEATHER *****

CITY           SKY/WX    TMP DP  RH WIND       PRES   REMARKS
LA GUARDIA NY  MOSUNNY   82  64  54 S13       29.91F
RALEIGH NC     PTSUNNY   83  67  58 NE14      29.93S
ATLANTA GA     LGT RAIN  89  58  34 SW3       29.91F
NEW ORLEANS LA CLOUDY    88  70  55 S13G18    29.88F HX  93
OKLAHOMA CITY  CLOUDY    80  69  69 E9        29.85F
ALBUQUERQUE NM CLOUDY    74  32  21 SE17      29.97F
SALT LAKE CITY MOSUNNY   75  31  19 N10G20    30.06F
LOS ANGELES CA MOSUNNY   68  57  68 W12       29.88S
BOISE ID       SUNNY     76  21  12 VRB3      30.06F
SEATTLE WA     PTSUNNY   76  50  40 NW8       30.05F
$$

*** WEATHER ACROSS MANITOBA...SASKATCHEWAN AND ONTARIO ***
                ***ONTARIO***

CITY           SKY/WX    TMP DP  RH WIND       PRES   REMARKS
GERALDTON      PTSUNNY   63  32  31 E8G21     30.11S
THUNDER BAY    LGT RAIN  48  41  76 E10G20    30.05F
SIOUX LOOKOUT  LGT RAIN  46  45  93 E8        29.96F FOG
TORONTO        PTSUNNY   75  50  41 N16       30.00R
BIG TROUT LK   SUNNY     54  32  43 SE7       30.19F
PICKLE LAKE    CLOUDY    57  28  33 SE17G25   30.07F
DRYDEN         LGT RAIN  48  46  93 E14G24    29.91S
KENORA         LGT RAIN  50  48  93 SE13G22   29.84S FOG
$$
                *** MANITOBA***

CITY           SKY/WX    TMP DP  RH WIND       PRES   REMARKS
BRANDON        LGT RAIN  54  50  87 NE28G36   29.66S
DAUPHIN        RAIN      52  50  93 NE26G33   29.83S FOG
ISLAND LAKE    CLOUDY    57  32  38 NE14G22   30.08F
PILOT MOUND      N/A     63  55  77 S12G21      N/A
THE PAS        PTSUNNY   61  37  41 E6        30.04F
THOMPSON       PTSUNNY   61  34  36 NE7       30.12F
WINNIPEG       CLOUDY    55  52  88 E23G30    29.70F
LYNN LAKE      CLOUDY    63  39  42 E7        30.09F
CHURCHILL      PTSUNNY   43  30  61 SE15      30.30F
GILLAM         MOSUNNY   52  30  43 NE9G17    30.21F
$$
                ***SASKATCHEWAN***

CITY           SKY/WX    TMP DP  RH WIND       PRES   REMARKS
ESTEVAN        LGT RAIN  52  50  93 NW22G30   29.82R FOG
KINDERSLEY     PTSUNNY   57  48  72 N10       30.08F
LLOYDMINSTER   PTSUNNY   63  43  48 N10G17    30.09F
PRINCE ALBERT  CLOUDY    61  45  55 E9        30.04F
REGINA         LGT RAIN  55  48  76 N20       29.95R
YORKTON        LGT RAIN  52  46  82 NE26G33   29.90S
N. BATTLEFORD  PTSUNNY   61  43  51 NW14G20   30.07F
LA RONGE       PTSUNNY   63  37  39 SE6       30.07F
SASKATOON      PTSUNNY   63  46  55 NE15G22   30.05S
SWIFT CURRENT  LGT RAIN  55  48  76 NW21G26   30.04S
$$
NOTE: THESE ARE AUTOMATED STATIONS WITH LIMITED QUALITY CONTROL
      "FAIR" INDICATES FEW OR NO CLOUDS BELOW 12,000 FEET WITH NO
      SIGNIFICANT WEATHER AND/OR OBSTRUCTIONS TO VISIBILITY.
      SKY/WX - SKY CONDITION AND SIGNIFICANT WEATHER.
      TMP - AIR TEMPERATURE.    DP   - DEWPOINT TEMPERATURE.
      RH  - RELATIVE HUMIDITY.  PRES - PRESSURE.
      HX  - HEAT INDEX.         WCI  - WIND CHILL INDEX.
$



USA.gov is the U.S. government's official web portal to all federal, state and local government web resources and services.